Regional Weather Roundup
Issued by NWS Goodland, KS

Home | Current Version | Previous Version | Graphics & Text | Print | Product List | Glossary On
Versions: 1 2 3 4 5 6 7 8 9 10 11 12 13 14 15 16 17 18 19 20 21 22 23 24 25 26 27 28 29 30 31 32 33 34 35 36 37 38 39 40 41 42 43 44 45 46 47 48 49 50
487
ASUS43 KGLD 231859
RWRGLD

GOODLAND FORECAST AREA HOURLY WEATHER ROUNDUP
NATIONAL WEATHER SERVICE GOODLAND KS
100 PM MDT SAT JUL 23 2016

...OFFICIAL OBSERVATIONS...

CITY           SKY/WX    TMP DP  RH WIND       PRES   REMARKS
GOODLAND KS    SUNNY     97  55  24 N12       29.95S
HILL CITY KS   SUNNY     97  64  33 SW9       29.85F
IMPERIAL NEB   SUNNY     89  66  46 VRB7      29.93F
MCCOOK NEB     CLOUDY    88  67  49 W5        29.88F
AKRON CO       SUNNY     92  51  24 N13       30.06S
BURLINGTON CO  SUNNY     96  51  21 NE17G24   30.00F
LIMON CO       SUNNY     95  39  14 NE8G21    30.11F
$$

...UNOFFICIAL OBSERVATIONS...

CITY           SKY/WX    TMP DP  RH WIND       PRES   REMARKS
COLBY KS       SUNNY     93  64  38 CALM      29.93S
LENORA KS        N/A     93  32  11 MISG        N/A
NORTON KS      SUNNY     97  54  23 S7        29.86S
$$




USA.gov is the U.S. government's official web portal to all federal, state and local government web resources and services.